Location: Azul
(36.7830°S, 59.8500°W)
Time: 13:14:43
(UTC-03:00)

ISS - Pass Details

Date: 19 August 2017
Orbit: 401 x 408 km, 51.6° (Epoch: 19 August)

Event Time Altitude Azimuth Distance (km) Brightness Sun altitude
Exits shadow 05:41:58 37° 127° (SE) 662 -2.4 -23.7°
Drops below altitude 10° 05:44:46 10° 74° (ENE) 1,483 0.0 -23.1°
Sets 05:46:55 0° 65° (ENE) 2,339 1.1 -22.7°
